{"data":{"norad_id":56487,"epoch":"2026-05-24T18:41:01.390848Z","epoch_age_seconds":101038,"freshness":"FRESH","line1":"1 56487U 23064AR  26144.77848832 -.00000848  00000+0 -63327-4 0  9995","line2":"2 56487  69.9988 272.4572 0003189 261.2046  98.8752 14.98322088167639","mean_motion":14.98322088,"eccentricity":0.0003189,"inclination_deg":69.9988,"raan_deg":272.4572,"arg_perigee_deg":261.2046,"mean_anomaly_deg":98.8752,"bstar":-6.3327e-5,"rev_number":16763,"period_min":96.107506625772,"perigee_km":569.86393394387,"apogee_km":574.29678257497,"semimajor_km":6950.2173582594,"source":"CELESTRAK","updated_at":"2026-05-25T13:38:18.074624Z"}}